SCP
0 0 0 0 0 0 0 0 0 0 0 0 0 0 0 0 0 0 0 0 0 0
0 0 0 0 0 0 0 0 0 0 0 0 0 0 0 0 0 0 0 0 0 0
0 0 0 0 0 0 0 0 0 0 0 0 0 0 0 0 0 0 0 0 0 0
0 0 0 0 0 0 0 0 0 0 0 0 0 0 0 0 0 0 0 0 0 0
0 0 0 0 0 0 0 0 0 0 0 0 0 0 0 0 0 0 0 0 0 0
0 0 0 0 0 0 0 0 0 0 0 0 0 0 0 0 0 0 0 0 0 0
0 0 0 0 0 0 0 0 0 0 0 0 0 0 0 0 0 0 0 0 0 0
0 0 0 0 0 0 0 0 0 0 0 0 0 0 0 0 0 0 0 0 0 0
0 0 0 0 0 0 0 0 0 0 0 0 0 0 0 0 0 0 0 0 0 0
0 0 0 0 0 0 0 0 0 0 0 0 0 0 0 0 0 0 0 0 0 0
0 0 0 0 0 0 0 0 0 0 0 0 0 0 0 0 0 0 0 0 0 0
0 0 0 0 0 0 0 0 0 0 0 0 0 0 0 0 0 0 0 0 0 0
0 0 0 0 0 0 0 0 0 0 0 0 0 0 0 0 0 0 0 0 0 0
0 0 0 0 0 0 0 0 0 0 0 0 0 0 0 0 0 0 0 0 0 0
Wind_Speed_500mb
99 101 103 105 106 106 106 99 98 95 89 82 79 69 62 57 55 51 47 42 40 37
90 95 99 99 100 102 99 100 100 96 92 89 82 72 66 62 58 53 47 42 40 38
80 84 86 92 96 97 98 97 96 98 97 92 84 76 72 66 62 56 50 45 42 41
63 68 78 81 84 87 91 91 91 94 97 94 88 83 77 72 66 61 54 48 44 42
47 52 64 65 73 79 84 85 83 87 96 95 91 86 83 78 72 65 59 51 47 45
33 41 53 57 61 69 76 77 78 82 87 93 92 89 85 80 74 68 59 53 50 46
21 27 37 47 53 58 67 70 73 78 81 84 86 88 87 81 76 70 63 58 54 49
24 27 29 36 40 49 57 63 65 70 74 78 83 84 83 82 77 72 67 62 58 52
14 26 30 32 34 37 46 54 59 64 67 72 75 75 77 76 76 74 70 66 61 55
17 9 15 27 36 40 41 45 51 55 60 67 70 69 68 70 73 73 71 68 63 59
33 24 14 3 14 27 35 40 45 50 52 56 60 64 66 67 67 69 72 70 63 60
43 39 33 22 11 3 15 27 36 43 48 54 59 61 64 66 67 70 72 70 66 63
48 46 43 38 31 21 9 8 21 31 38 45 51 52 56 60 65 68 71 71 70 66
40 40 42 41 39 35 28 15 9 14 22 30 38 45 51 56 62 66 70 72 70 69
Wind_Direction_500mb
225 225 227 228 227 225 223 220 220 217 216 216 216 215 215 214 215 216 218 221 224 227
224 225 226 230 230 229 227 224 222 219 217 218 217 215 215 215 215 216 218 221 226 231
225 225 226 230 231 229 228 225 223 220 219 219 218 216 216 215 216 217 219 221 226 232
220 223 221 224 230 232 230 226 225 222 221 220 219 217 217 217 218 220 221 224 229 233
217 218 216 223 227 229 230 231 228 224 222 221 219 219 219 219 220 222 224 228 232 235
216 219 218 222 223 224 228 232 230 228 225 222 221 221 222 223 225 227 229 233 238 240
186 211 220 221 222 224 228 230 230 231 229 225 223 224 225 225 227 228 231 235 239 241
180 188 195 211 221 224 227 232 233 233 230 227 225 226 226 228 230 231 233 236 240 242
178 197 199 203 203 217 227 233 233 232 232 230 227 226 228 232 233 233 235 238 242 244
78 116 195 208 209 209 212 222 232 234 232 231 231 231 232 233 234 236 238 241 243 243
57 58 64 128 216 220 222 223 223 231 235 234 233 234 235 236 236 238 241 243 244 246
43 47 45 48 47 274 236 233 234 230 227 230 231 234 236 237 237 237 240 243 243 244
29 33 38 37 39 35 7 263 244 238 236 235 232 229 233 237 239 239 240 241 241 241
14 14 19 23 30 31 30 22 335 275 249 239 239 234 232 232 235 239 242 241 240 240
Wind_Speed_850mb
99 101 103 105 106 106 106 99 98 95 89 82 79 69 62 57 55 51 47 42 40 37
90 95 99 99 100 102 99 100 100 96 92 89 82 72 66 62 58 53 47 42 40 38
80 84 86 92 96 97 98 97 96 98 97 92 84 76 72 66 62 56 50 45 42 41
63 68 78 81 84 87 91 91 91 94 97 94 88 83 77 72 66 61 54 48 44 42
47 52 64 65 73 79 84 85 83 87 96 95 91 86 83 78 72 65 59 51 47 45
33 41 53 57 61 69 76 77 78 82 87 93 92 89 85 80 74 68 59 53 50 46
21 27 37 47 53 58 67 70 73 78 81 84 86 88 87 81 76 70 63 58 54 49
24 27 29 36 40 49 57 63 65 70 74 78 83 84 83 82 77 72 67 62 58 52
14 26 30 32 34 37 46 54 59 64 67 72 75 75 77 76 76 74 70 66 61 55
17 9 15 27 36 40 41 45 51 55 60 67 70 69 68 70 73 73 71 68 63 59
33 24 14 3 14 27 35 40 45 50 52 56 60 64 66 67 67 69 72 70 63 60
43 39 33 22 11 3 15 27 36 43 48 54 59 61 64 66 67 70 72 70 66 63
48 46 43 38 31 21 9 8 21 31 38 45 51 52 56 60 65 68 71 71 70 66
40 40 42 41 39 35 28 15 9 14 22 30 38 45 51 56 62 66 70 72 70 69
Wind_Direction_850mb
225 225 227 228 227 225 223 220 220 217 216 216 216 215 215 214 215 216 218 221 224 227
224 225 226 230 230 229 227 224 222 219 217 218 217 215 215 215 215 216 218 221 226 231
225 225 226 230 231 229 228 225 223 220 219 219 218 216 216 215 216 217 219 221 226 232
220 223 221 224 230 232 230 226 225 222 221 220 219 217 217 217 218 220 221 224 229 233
217 218 216 223 227 229 230 231 228 224 222 221 219 219 219 219 220 222 224 228 232 235
216 219 218 222 223 224 228 232 230 228 225 222 221 221 222 223 225 227 229 233 238 240
186 211 220 221 222 224 228 230 230 231 229 225 223 224 225 225 227 228 231 235 239 241
180 188 195 211 221 224 227 232 233 233 230 227 225 226 226 228 230 231 233 236 240 242
178 197 199 203 203 217 227 233 233 232 232 230 227 226 228 232 233 233 235 238 242 244
78 116 195 208 209 209 212 222 232 234 232 231 231 231 232 233 234 236 238 241 243 243
57 58 64 128 216 220 222 223 223 231 235 234 233 234 235 236 236 238 241 243 244 246
43 47 45 48 47 274 236 233 234 230 227 230 231 234 236 237 237 237 240 243 243 244
29 33 38 37 39 35 7 263 244 238 236 235 232 229 233 237 239 239 240 241 241 241
14 14 19 23 30 31 30 22 335 275 249 239 239 234 232 232 235 239 242 241 240 240